Weather History for Wheeler AAF, HI

Change the Weather History Date:

Monday, February 4, 2013

  Actual Average Record
Temperature  
Mean Temperature 68 °F -  
Max Temperature 71 °F 74 °F 82 °F (2004)
Min Temperature 66 °F 61 °F 56 °F (2012)
Cooling Degree Days 4    
Growing Degree Days 18 (Base 50)    
Moisture  
Dew Point 60 °F    
Average Humidity 75    
Maximum Humidity 88    
Minimum Humidity 63    
Precipitation  
Precipitation 0.05 in - - ()
Sea Level Pressure  
Sea Level Pressure 30.09 in    
Wind  
Wind Speed 9 mph (NE)    
Max Wind Speed 17 mph    
Max Gust Speed 23 mph    
Visibility 9 miles    
Events Rain    
Averages and records for this station are not official NWS values.
T = Trace of Precipitation, MM = Missing Value Source: NWS Daily Summary

Daily Weather History Graph

Daily Weather History Graph

Search for Another Location

Airport:

Trip Planner

Search our weather history database for the weather conditions in past years. The results will help you decide how hot, cold, wet, or windy it might be!

Date:

Astronomy

Feb. 04, 2013 Rise Set
Actual Time 7:08 AM HST 6:24 PM HST
Civil Twilight 6:45 AM HST 6:47 PM HST
Nautical Twilight 6:18 AM HST 7:13 PM HST
Astronomical Twilight 5:52 AM HST 7:40 PM HST
Moon 1:47 AM HST (2/4) 1:08 PM HST (2/4)
Length of Visible Light 12h 02m
Length of Day
11h 15m
Waning Crescent, 35% of the Moon is Illuminated
Feb 4
Waning Crescent
Feb 9
New
Feb 17
First Quarter
Feb 25
Full
Mar 4
Last Quarter

Hourly Weather History & Observations

Time (HST) Temp. Dew Point Humidity Pressure Visibility Wind Dir Wind Speed Gust Speed Precip Events Conditions
12:55 AM 67.3 °F 56.7 °F 69% 30.11 in 10.0 mi NE 10.4 mph - N/A   Scattered Clouds
1:55 AM 67.5 °F 57.2 °F 70% 30.09 in 10.0 mi North 10.4 mph - N/A   Mostly Cloudy
2:55 AM 66.7 °F 54.9 °F 66% 30.08 in 10.0 mi North 8.1 mph - N/A   Mostly Cloudy
3:55 AM 67.5 °F 55.6 °F 66% 30.08 in 10.0 mi NNE 8.1 mph - N/A   Overcast
4:55 AM 67.1 °F 55.2 °F 66% 30.09 in 10.0 mi NE 9.2 mph - N/A   Overcast
5:55 AM 66.6 °F 54.5 °F 65% 30.10 in 10.0 mi North 5.8 mph - N/A   Mostly Cloudy
6:55 AM 67.1 °F 55.6 °F 66% 30.12 in 10.0 mi North 5.8 mph - N/A   Overcast
7:55 AM 67.8 °F 56.3 °F 67% 30.12 in 10.0 mi Variable 5.8 mph - N/A   Overcast
8:55 AM 68.5 °F 55.8 °F 64% 30.13 in 10.0 mi North 10.4 mph - N/A   Overcast
9:55 AM 70.0 °F 56.8 °F 63% 30.13 in 10.0 mi NE 8.1 mph - N/A   Overcast
10:55 AM 70.7 °F 58.3 °F 65% 30.13 in 10.0 mi North 10.4 mph - N/A   Overcast
10:56 AM 71.6 °F 59.0 °F 64% 30.13 in 10.0 mi NNE 11.5 mph - N/A Rain Light Rain
11:04 AM 69.8 °F 60.8 °F 73% 30.13 in 9.0 mi NE 12.7 mph 20.7 mph N/A Rain Light Rain
11:08 AM 69.8 °F 59.0 °F 68% 30.13 in 10.0 mi NE 9.2 mph 20.7 mph N/A   Light Drizzle
11:09 AM 69.8 °F 59.0 °F 68% 30.13 in 10.0 mi NE 10.4 mph 20.7 mph N/A   Overcast
11:11 AM 69.8 °F 60.8 °F 73% 30.13 in 10.0 mi NE 9.2 mph - N/A   Mostly Cloudy
11:13 AM 69.8 °F 60.8 °F 73% 30.13 in 10.0 mi NE 12.7 mph 18.4 mph N/A   Overcast
11:17 AM 69.8 °F 60.8 °F 73% 30.13 in 10.0 mi NE 11.5 mph 18.4 mph N/A   Light Drizzle
11:26 AM 68.0 °F 59.0 °F 73% 30.13 in 10.0 mi ENE 17.3 mph 23.0 mph N/A   Overcast
11:31 AM 68.0 °F 59.0 °F 73% 30.13 in 10.0 mi NNE 12.7 mph 23.0 mph N/A   Light Drizzle
11:44 AM 68.0 °F 60.8 °F 78% 30.12 in 10.0 mi Variable 6.9 mph - N/A   Mostly Cloudy
11:55 AM 69.1 °F 60.4 °F 74% 30.12 in 10.0 mi NNE 9.2 mph - 0.00 in   Overcast
12:03 PM 69.8 °F 60.8 °F 73% 30.11 in 10.0 mi NE 11.5 mph 18.4 mph N/A   Mostly Cloudy
12:09 PM 69.8 °F 60.8 °F 73% 30.11 in 10.0 mi NNE 10.4 mph 18.4 mph N/A   Mostly Cloudy
12:19 PM 69.8 °F 60.8 °F 73% 30.11 in 6.0 mi NE 15.0 mph - N/A Rain Light Rain
12:23 PM 69.8 °F 60.8 °F 73% 30.11 in 4.0 mi NE 11.5 mph - N/A Rain Light Rain
12:33 PM 68.0 °F 62.6 °F 83% 30.11 in 6.0 mi NE 16.1 mph 20.7 mph N/A Rain Light Rain
12:39 PM 68.0 °F 62.6 °F 83% 30.11 in 7.0 mi NE 12.7 mph - N/A   Mostly Cloudy
12:55 PM 68.2 °F 61.5 °F 79% 30.10 in 10.0 mi NNE 4.6 mph - 0.01 in   Mostly Cloudy
12:56 PM 68.0 °F 60.8 °F 78% 30.10 in 10.0 mi NE 5.8 mph - N/A   Mostly Cloudy
12:57 PM 68.0 °F 60.8 °F 78% 30.10 in 10.0 mi Variable 5.8 mph - N/A   Mostly Cloudy
12:58 PM 68.0 °F 60.8 °F 78% 30.10 in 10.0 mi North 4.6 mph - N/A   Mostly Cloudy
1:02 PM 68.0 °F 60.8 °F 78% 30.10 in 10.0 mi NE 6.9 mph - N/A   Light Drizzle
1:12 PM 68.0 °F 62.6 °F 83% 30.09 in 4.0 mi NE 9.2 mph - N/A Rain Light Rain
1:14 PM 68.0 °F 62.6 °F 83% 30.09 in 5.0 mi NE 8.1 mph - N/A Rain Light Rain
1:17 PM 68.0 °F 62.6 °F 83% 30.09 in 5.0 mi NE 6.9 mph - N/A   Light Drizzle
1:18 PM 68.0 °F 62.6 °F 83% 30.09 in 5.0 mi NE 5.8 mph - N/A   Drizzle
1:19 PM 68.0 °F 62.6 °F 83% 30.09 in 6.0 mi Variable 4.6 mph - N/A   Light Drizzle
1:52 PM 68.0 °F 62.6 °F 83% 30.08 in 3.0 mi East 6.9 mph - N/A Rain Rain
1:55 PM 67.3 °F 63.0 °F 86% 30.08 in 3.0 mi ENE 8.1 mph - 0.03 in Rain Light Rain
2:10 PM 68.0 °F 64.4 °F 88% 30.07 in 10.0 mi NE 8.1 mph - N/A   Mostly Cloudy
2:18 PM 69.8 °F 64.4 °F 83% 30.07 in 10.0 mi East 9.2 mph - N/A   Mostly Cloudy
2:23 PM 69.8 °F 62.6 °F 78% 30.07 in 7.0 mi NE 13.8 mph - N/A Rain Light Rain
2:37 PM 69.8 °F 62.6 °F 78% 30.06 in 10.0 mi NE 10.4 mph - N/A   Mostly Cloudy
2:52 PM 68.0 °F 62.6 °F 83% 30.06 in 10.0 mi ENE 13.8 mph - N/A Rain Light Rain
2:55 PM 68.4 °F 61.9 °F 80% 30.06 in 9.0 mi ENE 11.5 mph - 0.01 in   Light Drizzle
3:06 PM 68.0 °F 62.6 °F 83% 30.06 in 10.0 mi NE 9.2 mph - N/A   Mostly Cloudy
3:08 PM 68.0 °F 62.6 °F 83% 30.06 in 10.0 mi NE 6.9 mph - N/A   Light Drizzle
3:34 PM 68.0 °F 62.6 °F 83% 30.05 in 10.0 mi NE 6.9 mph - N/A   Mostly Cloudy
3:55 PM 69.6 °F 61.0 °F 74% 30.04 in 10.0 mi NE 6.9 mph - 0.00 in   Mostly Cloudy
4:10 PM 69.8 °F 60.8 °F 73% 30.04 in 10.0 mi NE 13.8 mph - N/A   Light Drizzle
4:19 PM 69.8 °F 60.8 °F 73% 30.04 in 10.0 mi NE 11.5 mph - N/A   Mostly Cloudy
4:55 PM 70.0 °F 59.0 °F 68% 30.05 in 10.0 mi NE 15.0 mph - 0.00 in   Mostly Cloudy
5:55 PM 68.5 °F 57.2 °F 67% 30.06 in 10.0 mi ENE 9.2 mph - N/A   Partly Cloudy
6:55 PM 68.0 °F 58.1 °F 71% 30.05 in 10.0 mi NE 6.9 mph - N/A   Overcast
7:55 PM 68.4 °F 57.6 °F 68% 30.07 in 10.0 mi Variable 3.5 mph - N/A   Overcast
8:55 PM 68.0 °F 58.3 °F 71% 30.08 in 10.0 mi NE 9.2 mph - N/A   Mostly Cloudy
9:55 PM 67.3 °F 58.1 °F 72% 30.09 in 10.0 mi ENE 4.6 mph - N/A   Mostly Cloudy
10:55 PM 67.8 °F 58.3 °F 71% 30.09 in 10.0 mi NE 8.1 mph - N/A   Overcast
11:55 PM 67.3 °F 58.6 °F 74% 30.09 in 10.0 mi NNE 6.9 mph - N/A   Mostly Cloudy